Voltar ao catálogo

THORAD AGENA D DEB

AtivoLEO
NORAD 4217·DEBRIS·🇺🇸 United States

Lançado Sep 30, 1969 de Vandenberg Space Force Base

Loading…

Próximas Passagens (próximas 24 horas)

TLE

AtualizadoSource: Space-Track

Época: Sep 14, 2026, 13:01 UTC

1 04217U 69082CG  26257.54243999  .00000599  00000-0  19818-3 0  9999
2 04217  70.0379 304.2778 0036568 249.1998 110.5214 14.42155701960686

Acompanhe THORAD AGENA D DEB em tempo real com AllMySat

Download on the App Store